Location: Ay?beleni
(36.6500°N, 30.3000°E)
Time: 02:24:03
(UTC+00:00)

CSL-04 Debris - Pass Details

Date: 16 October 2021
Orbit: 827 x 847 km, 98.9° (Epoch: 04 December)

Event Time Altitude Azimuth Distance (km) Brightness Sun altitude
Exits shadow 17:26:58 66° 152° (SSE) 898 4.1 -26.0°
Maximum altitude 17:27:44 84° 75° (ENE) 836 4.0 -26.1°
Drops below altitude 10° 17:33:09 10° 348° (NNW) 2,440 6.8 -27.2°
Sets 17:35:31 0° 348° (NNW) 3,380 7.6 -27.7°
